| time (UTC) | temp F | wind direction | speed MPH | gust MPH | rain 1hr in | rain 24hr in | rain mn in | humidity % | barometer mb |
| 20260504081515 | 55 | 132 | 0.0 | 0.0 | 0.00 | 0.00 | 0.00 | 85 | 1017.7 |
| 20260504050014 | 60 | 132 | 0.0 | 0.0 | 0.00 | 0.00 | 0.00 | 71 | 1019.1 |
| 20260504044532 | 61 | 132 | 0.0 | 1.0 | 0.00 | 0.00 | 0.00 | 68 | 1019.2 |
| 20260504043022 | 61 | 229 | 0.0 | 1.0 | 0.00 | 0.00 | 0.00 | 68 | 1019.4 |
| 20260504041525 | 60 | 243 | 0.0 | 1.0 | 0.00 | 0.00 | 0.00 | 69 | 1019.3 |
| 20260504040008 | 59 | 203 | 0.0 | 2.0 | 0.00 | 0.00 | 0.00 | 72 | 1019.2 |
| 20260504034514 | 59 | 137 | 0.0 | 1.0 | 0.00 | 0.00 | 0.00 | 77 | 1019.3 |
| 20260504033027 | 59 | 136 | 0.0 | 0.0 | 0.00 | 0.00 | 0.00 | 77 | 1019.3 |
| 20260504031523 | 60 | 136 | 0.0 | 0.0 | 0.00 | 0.00 | 0.00 | 74 | 1019.3 |
| 20260504030027 | 60 | 136 | 0.0 | 0.0 | 0.00 | 0.00 | 0.00 | 73 | 1019.2 |
| 20260504024516 | 60 | 136 | 0.0 | 1.0 | 0.00 | 0.00 | 0.00 | 72 | 1019.1 |
| 20260504023014 | 61 | 216 | 0.0 | 0.0 | 0.00 | 0.00 | 0.00 | 70 | 1019.0 |
| 20260504021533 | 61 | 215 | 0.0 | 0.0 | 0.00 | 0.00 | 0.00 | 68 | 1018.8 |
| 20260504020023 | 61 | 216 | 0.0 | 0.0 | 0.00 | 0.00 | 0.00 | 66 | 1018.6 |
| 20260504014525 | 62 | 216 | 0.0 | 0.0 | 0.00 | 0.00 | 0.00 | 67 | 1018.6 |
| 20260504013012 | 63 | 216 | 0.0 | 0.0 | 0.00 | 0.00 | 0.00 | 64 | 1018.4 |
| 20260504011516 | 64 | 216 | 0.0 | 0.0 | 0.00 | 0.00 | 0.00 | 63 | 1018.2 |
| 20260504010020 | 65 | 216 | 0.0 | 0.0 | 0.00 | 0.00 | 0.00 | 61 | 1018.3 |
| 20260504004528 | 67 | 216 | 0.0 | 0.0 | 0.00 | 0.00 | 0.00 | 58 | 1018.1 |
| 20260504003028 | 69 | 216 | 0.0 | 0.0 | 0.00 | 0.00 | 0.00 | 53 | 1018.1 |
| 20260504001513 | 70 | 216 | 0.0 | 2.0 | 0.00 | 0.00 | 0.00 | 51 | 1018.1 |
| 20260504000020 | 71 | 234 | 2.0 | 5.0 | 0.00 | 0.00 | 0.00 | 48 | 1018.1 |
| 20260503234525 | 71 | 219 | 0.0 | 4.0 | 0.00 | 0.00 | 0.00 | 47 | 1018.1 |
| 20260503233026 | 72 | 174 | 2.0 | 9.0 | 0.00 | 0.00 | 0.00 | 44 | 1018.3 |
| 20260503231528 | 74 | 229 | 1.0 | 5.0 | 0.00 | 0.00 | 0.00 | 45 | 1018.2 |
| 20260503230014 | 75 | 240 | 2.0 | 5.0 | 0.00 | 0.00 | 0.00 | 42 | 1018.3 |
| 20260503224519 | 76 | 219 | 3.0 | 6.0 | 0.00 | 0.00 | 0.00 | 39 | 1018.4 |
| 20260503223026 | 75 | 224 | 3.0 | 9.0 | 0.00 | 0.00 | 0.00 | 39 | 1018.4 |
| 20260503221533 | 75 | 249 | 2.0 | 6.0 | 0.00 | 0.00 | 0.00 | 39 | 1018.5 |
| 20260503220030 | 75 | 266 | 2.0 | 9.0 | 0.00 | 0.00 | 0.00 | 39 | 1018.6 |
| 20260503214518 | 75 | 212 | 3.0 | 6.0 | 0.00 | 0.00 | 0.00 | 39 | 1018.7 |
| 20260503213030 | 75 | 148 | 2.0 | 9.0 | 0.00 | 0.00 | 0.00 | 41 | 1018.9 |
| 20260503211525 | 75 | 229 | 3.0 | 7.0 | 0.00 | 0.00 | 0.00 | 39 | 1019.1 |
| 20260503210029 | 75 | 88 | 3.0 | 7.0 | 0.00 | 0.00 | 0.00 | 38 | 1019.4 |
| 20260503204529 | 76 | 250 | 0.0 | 7.0 | 0.00 | 0.00 | 0.00 | 39 | 1019.5 |
| 20260503203020 | 76 | 219 | 3.0 | 6.0 | 0.00 | 0.00 | 0.00 | 39 | 1019.8 |
| 20260503201523 | 75 | 196 | 3.0 | 10.0 | 0.00 | 0.00 | 0.00 | 43 | 1019.9 |
| 20260503200011 | 76 | 234 | 1.0 | 10.0 | 0.00 | 0.00 | 0.00 | 39 | 1020.1 |
| 20260503194510 | 76 | 220 | 3.0 | 7.0 | 0.00 | 0.00 | 0.00 | 40 | 1020.3 |
| 20260503193008 | 76 | 101 | 2.0 | 7.0 | 0.00 | 0.00 | 0.00 | 37 | 1020.7 |
| 20260503191510 | 79 | 316 | 0.0 | 4.0 | 0.00 | 0.00 | 0.00 | 35 | 1020.8 |
| 20260503190019 | 79 | 191 | 2.0 | 5.0 | 0.00 | 0.00 | 0.00 | 33 | 1020.9 |
| 20260503184517 | 79 | 321 | 1.0 | 3.0 | 0.00 | 0.00 | 0.00 | 33 | 1021.1 |
| 20260503183023 | 79 | 315 | 1.0 | 3.0 | 0.00 | 0.00 | 0.00 | 33 | 1021.2 |
| 20260503181526 | 77 | 326 | 1.0 | 6.0 | 0.00 | 0.00 | 0.00 | 34 | 1021.5 |
| 20260503180012 | 78 | 175 | 1.0 | 3.0 | 0.00 | 0.00 | 0.00 | 36 | 1021.6 |
| 20260503174511 | 78 | 288 | 0.0 | 3.0 | 0.00 | 0.00 | 0.00 | 34 | 1021.9 |
| 20260503173036 | 77 | 314 | 0.0 | 5.0 | 0.00 | 0.00 | 0.00 | 37 | 1022.1 |
| 20260503171513 | 76 | 304 | 1.0 | 6.0 | 0.00 | 0.00 | 0.00 | 34 | 1022.4 |